Regional Weather Roundup
Issued by NWS

Home | Current Version | Previous Version | Graphics & Text | Print | Product List | Glossary On
Versions: 1 2 3 4 5 6 7 8 9 10 11 12 13 14 15 16 17 18 19 20 21 22 23 24 25 26 27
000
ASUS45 KBOU 160207
RWRCO

WEATHER ROUNDUP FOR COLORADO
NATIONAL WEATHER SERVICE DENVER/BOULDER CO
800 PM MDT SUN OCT 15 2017

NOTE: "FAIR" INDICATES FEW OR NO CLOUDS BELOW 12000 FEET WITH NO
SIGNIFICANT WEATHER AND/OR OBSTRUCTIONS TO VISIBILITY.

COZ001>005-013-030-031-160300-
...NORTHWEST COLORADO...

CITY           SKY/WX    TMP DP  RH WIND       PRES   REMARKS
CRAIG          FAIR      37  19  48 CALM      30.47R
HAYDEN         FAIR      44  15  31 SW6       30.49R
MEEKER         FAIR      42  17  36 CALM      30.47R
RABBIT EARS PA FAIR      36  10  35 W9        30.62S
STEAMBOAT SPGS FAIR      41  17  37 SE9       30.49R
WALDEN         FAIR      39   9  28 S7        30.53S
$$

COZ006>008-011-160300-
...WEST CENTRAL VALLEYS...

CITY           SKY/WX    TMP DP  RH WIND       PRES   REMARKS
GRAND JUNCTION FAIR      48  12  23 NE3       30.43R
MONTROSE       FAIR      43  19  38 SE7       30.49R
EAGLE          FAIR      44  19  36 E9        30.50R
RIFLE          FAIR      45  18  34 SE6       30.45R
DELTA          FAIR      50   9  19 NE6       30.44R
NUCLA          FAIR      52   1  12 E3        30.49R
$$

COZ017>023-064>068-160300-
...SOUTHWEST COLORADO...

CITY           SKY/WX    TMP DP  RH WIND       PRES   REMARKS
DURANGO        FAIR      51  10  19 W5        30.48R
CORTEZ         FAIR      38  19  46 CALM      30.46R
PAGOSA SPRINGS FAIR      44  12  26 CALM      30.53R
TELLURIDE      FAIR      47   2  15 SE6       30.62R
WOLF CREEK PAS FAIR      36  -4  18 SW12      30.78R
$$

COZ009-010-012-014-032>034-037-058>063-160300-
...CENTRAL COLORADO...

CITY           SKY/WX    TMP DP  RH WIND       PRES   REMARKS
ASPEN          FAIR      40  16  37 S10       30.54R
BUENA VISTA    FAIR      45   7  21 W9        30.50R
COPPER MTN     FAIR      37  -6  15 W16       30.69S
BERTHOUD PASS  FAIR      30  21  69 NW25      30.68R WCI  16
COTTONWOOD PAS FAIR      54  -8   8 W7        30.60R
GUNNISON       FAIR      43  13  29 CALM      30.52R
KREMMLING      FAIR      43  19  39 SE3       30.51R
LEADVILLE      FAIR      37  -2  19 E3        30.60R
SALIDA         NOT AVBL
SUNLIGHT       FAIR      34   1  25 SW9       30.69R WCI  26
WILKERSON PASS FAIR      41  -8  12 NW10G21   30.68S
$$

COZ069>075-160300-
...SAN LUIS VALLEY/SANGRE DE CRISTO MOUNTAINS...

CITY           SKY/WX    TMP DP  RH WIND       PRES   REMARKS
ALAMOSA        FAIR      44   8  23 CALM      30.49R
DEL NORTE      FAIR      42  13  31 W10       30.54R
LA VETA PASS   FAIR      45  -4  13 S17G24    30.73R
SAGUACHE       FAIR      45  10  24 N8        30.53R
$$

COZ035-036-038>040-160300-
...NORTHERN COLORADO FRONT RANGE...

CITY           SKY/WX    TMP DP  RH WIND       PRES   REMARKS
DENVER INTL AP FAIR      51  17  26 E5        30.40R
DMNS CITY PARK   N/A     48  32  54 NE12      30.40S
AURORA         CLEAR     51  20  29 CALM      30.41R
FRONT RANGE AP CLEAR     54  19  26 E7        30.41R
ERIE MUNI ARPT FAIR      40  32  72 CALM      30.46R
BOULDER MUN AP FAIR      46  30  53 CALM      30.41R
CENTENNIAL     FAIR      52  22  30 W9        30.41R
BROOMFIELD     CLEAR     52  27  37 NW8       30.42R
FORT COLLINS   FAIR      53  27  36 CALM      30.41R
LONGMONT       FAIR      46  30  53 W6        30.42S
$$

COZ041-046-047-076>085-087-088-160300-
...PIKES PEAK/PALMER DIVIDE AND SOUTHERN FOOTHILLS...

CITY           SKY/WX    TMP DP  RH WIND       PRES   REMARKS
COLO. SPRINGS  FAIR      50  20  30 SE6       30.47R
A. F. ACADEMY  FAIR      43  21  42 N8        30.47R
SCHRIEVER AFB  FAIR      46  18  33 MISG      30.47R
CHEYENNE MTN   FAIR      47  15  28 S5        30.43R
ELLICOTT       FAIR     N/A N/A N/A SE7       30.46R
FALCON         FAIR      42  19  39 SW8       30.49R
FORT CARSON    FAIR      50  19  29 SW6       30.45R
LIMON          FAIR      39  25  57 SE5       30.43R
MONUMENT HILL  FAIR      37  21  52 S9        30.48S
CANON CITY     CLEAR     54  23  30 CALM      30.44R
WALSENBURG     FAIR      46  25  42 NW6       30.45R
TRINIDAD       FAIR      49  27  42 W8        30.44R
$$

COZ042>045-048>051-090-091-160300-
...NORTHEAST COLORADO...

CITY           SKY/WX    TMP DP  RH WIND       PRES   REMARKS
GREELEY ARPT   FAIR      43  30  60 NE6       30.40R
AKRON          FAIR      49  22  34 SE7       30.40R
BURLINGTON     FAIR      46  27  47 S12       30.41R
WRAY           FAIR      52  25  35 CALM      30.39R
YUMA           FAIR      41  28  60 CALM      30.39R
STERLING       FAIR      46  28  49 CALM      30.37R
HOLYOKE        FAIR      45  30  57 S6        30.38R
FORT MORGAN    FAIR      53  17  24 NE5       30.40R
$$

COZ086-089-092>099-160300-
...SOUTHEAST COLORADO...

CITY           SKY/WX    TMP DP  RH WIND       PRES   REMARKS
PUEBLO         FAIR      49  23  36 NE9       30.41R
LA JUNTA       FAIR      50  28  42 NE6       30.39R
LAMAR          FAIR      51  26  37 SE12      30.38R
SPRINGFIELD      N/A     44  28  53 S9        30.42R
$$




USA.gov is the U.S. government's official web portal to all federal, state and local government web resources and services.